Simultaneous Nadir Overpasses (SNOs) Predictions

Prediction of SNOs between METOP-A and NOAA-19 Satellite Orbit:

Table of predicted SNOs for the next 14.0 days since TLE Epoch: 2/20/2016
Index Date (METOP-A) Time (METOP-A) Lat,Lon (METOP-A) SZA (METOP-A ) Date (NOAA-19) Time (NOAA-19) Lat,Lon (NOAA-19) SZA (NOAA-19 ) Distance(km) Time Diff (sec)
1 02/24/2016 13:18:44 -76.28, 161.20 94.25 02/24/2016 13:17:38 -76.28, 157.89 94.18 87.33 66
2 02/24/2016 14:09:35 75.77, -33.18 85.26 02/24/2016 14:08:34 75.78, -33.09 85.27 2.44 61
3 02/24/2016 15:00:16 -75.80, 134.24 94.73 02/24/2016 14:59:29 -75.78, 134.18 94.75 3.09 47
4 02/24/2016 15:50:56 75.76, -58.57 85.22 02/24/2016 15:50:35 75.77, -58.56 85.23 1.38 21
5 02/24/2016 16:41:38 -75.74, 108.70 94.82 02/24/2016 16:41:30 -75.77, 108.71 94.79 3.28 8
6
